Location: Kellogg
(38.0159°N, 90.0546°W)
Time: 07:52:17
(UTC+00:00)

Vanguard 1 Rocket - Pass Details

Date: 17 September 2024
Orbit: 650 x 4218 km, 34.3° (Epoch: 05 October)

Event Time Altitude Azimuth Distance (km) Brightness Sun altitude
Rises 07:45:23 0° 218° (SW) 4,557 - -42.5°
Reaches altitude 10° 07:48:00 10° 212° (SSW) 3,918 - -42.2°
Exits shadow 07:57:35 46° 150° (SSE) 3,078 9.8 -40.9°
Maximum altitude 07:58:25 46° 142° (SE) 3,146 9.8 -40.8°
Drops below altitude 10° 08:17:19 10° 79° (ENE) 6,871 12.4 -38.2°
Sets 08:23:48 0° 74° (ENE) 8,230 13.1 -37.2°
